IRIDIUM 162

Last updated on Fri Sep 11 2026 00:03:06 GMT+0000 (Coordinated Universal Time)

1 43482U 18047G 26253.50894412 .00000251 00000+0 68693-4 0 9995 2 43482 86.4452 52.6536 0002159 89.7091 270.4357 14.43286840437439
UTC large
Height (km)
Speed (km/s)
/
Latitude / Longitude
Inclination (degrees)
Orbital Period (minutes)
Azimuth
Elevation
Range (km)
Doppler Factor

Next 0 passes for location: London (51.5072 / 0.1276)

No passes found over London.
IRIDIUM 162